TimeEST,TemperatureF,Dew PointF,Humidity,Sea Level PressureIn,VisibilityMPH,Wind Direction,Wind SpeedMPH,Gust SpeedMPH,PrecipitationIn,Events,Conditions,WindDirDegrees,DateUTC
12:54 AM,33.1,19.9,59,30.02,10.0,WSW,9.2,-,N/A,,Clear,250,2012-12-23 05:54:00
1:54 AM,30.9,19.9,64,30.03,10.0,West,8.1,-,N/A,,Clear,270,2012-12-23 06:54:00
2:54 AM,30.9,19.9,64,30.05,10.0,West,5.8,-,N/A,,Clear,260,2012-12-23 07:54:00
3:54 AM,30.0,19.9,66,30.05,10.0,Calm,Calm,-,N/A,,Clear,0,2012-12-23 08:54:00
4:54 AM,28.9,19.9,69,30.05,10.0,West,5.8,-,N/A,,Clear,280,2012-12-23 09:54:00
5:54 AM,28.0,19.0,69,30.06,10.0,Calm,Calm,-,N/A,,Clear,0,2012-12-23 10:54:00
6:54 AM,27.0,19.0,72,30.06,10.0,SW,3.5,-,N/A,,Clear,230,2012-12-23 11:54:00
7:54 AM,28.0,19.0,69,30.07,10.0,SSW,3.5,-,N/A,,Partly Cloudy,200,2012-12-23 12:54:00
8:54 AM,33.1,19.0,56,30.06,10.0,South,6.9,-,N/A,,Partly Cloudy,190,2012-12-23 13:54:00
9:54 AM,36.0,18.0,48,30.06,10.0,SW,4.6,-,N/A,,Partly Cloudy,230,2012-12-23 14:54:00
10:54 AM,37.9,18.0,45,30.03,10.0,SSW,3.5,-,N/A,,Scattered Clouds,200,2012-12-23 15:54:00
11:54 AM,42.1,18.0,38,29.99,10.0,South,5.8,-,N/A,,Scattered Clouds,190,2012-12-23 16:54:00
12:54 PM,44.1,17.1,34,29.94,10.0,South,9.2,-,N/A,,Scattered Clouds,190,2012-12-23 17:54:00
1:54 PM,46.0,16.0,30,29.91,10.0,South,9.2,-,N/A,,Scattered Clouds,180,2012-12-23 18:54:00
2:54 PM,46.9,16.0,29,29.90,10.0,SSW,10.4,-,N/A,,Scattered Clouds,200,2012-12-23 19:54:00
3:54 PM,44.1,17.1,34,29.91,10.0,WSW,5.8,-,N/A,,Mostly Cloudy,240,2012-12-23 20:54:00
4:54 PM,42.1,18.0,38,29.92,10.0,Calm,Calm,-,N/A,,Mostly Cloudy,0,2012-12-23 21:54:00
5:54 PM,37.0,19.0,48,29.92,10.0,Calm,Calm,-,N/A,,Mostly Cloudy,0,2012-12-23 22:54:00
6:54 PM,37.0,19.9,50,29.94,10.0,Calm,Calm,-,N/A,,Mostly Cloudy,0,2012-12-23 23:54:00
7:54 PM,32.0,21.9,66,29.94,10.0,Calm,Calm,-,N/A,,Scattered Clouds,0,2012-12-24 00:54:00
8:54 PM,30.9,21.0,67,29.95,10.0,Calm,Calm,-,N/A,,Clear,0,2012-12-24 01:54:00
9:54 PM,30.9,21.9,69,29.97,10.0,Calm,Calm,-,N/A,,Partly Cloudy,0,2012-12-24 02:54:00
10:54 PM,28.0,21.0,75,29.99,10.0,SW,3.5,-,N/A,,Partly Cloudy,230,2012-12-24 03:54:00
11:54 PM,30.9,21.9,69,29.99,10.0,Calm,Calm,-,N/A,,Partly Cloudy,0,2012-12-24 04:54:00